This is the latest recevied weather packets stored in our database for station/object IZ7EXI-13. If no packets are shown the sender has not sent any weather packets the latest 1 day(s).
| Time | Temp. | Humidity | Pressure | Rain* | Wind** | Luminosity | Snow |
|---|---|---|---|---|---|---|---|
| 1778059967 | 24.44° C | 52% | 1017 hPa | - | - | - | - |
| 1778059067 | 23.89° C | 54% | 1017 hPa | - | - | - | - |
| 1778058167 | 23.33° C | 57% | 1017 hPa | - | - | - | - |
| 1778054566 | 23.33° C | 57% | 1016.8 hPa | - | - | - | - |
| 1778053662 | 23.33° C | 57% | 1016.7 hPa | - | - | - | - |
| 1778052760 | 22.78° C | 59% | 1016.5 hPa | - | - | - | - |
| 1778050959 | 22.22° C | 61% | 1016.7 hPa | - | - | - | - |
| 1778050059 | 22.22° C | 62% | 1016.8 hPa | - | - | - | - |
| 1778049159 | 21.11° C | 63% | 1017 hPa | - | - | - | - |
| 1778047358 | 21.11° C | 64% | 1016.9 hPa | - | - | - | - |
| 1778046458 | 20.56° C | 67% | 1016.6 hPa | - | - | - | - |
| 1778045558 | 19.44° C | 67% | 1016.6 hPa | - | - | - | - |
| 1778042857 | 18.89° C | 68% | 1016.4 hPa | - | - | - | - |
| 1778041957 | 18.33° C | 68% | 1016.6 hPa | - | - | - | - |
| 1778041057 | 18.33° C | 69% | 1016.5 hPa | - | - | - | - |
| 1778039256 | 17.78° C | 70% | 1016.4 hPa | - | - | - | - |
| 1778038356 | 17.78° C | 71% | 1016.3 hPa | - | - | - | - |
| 1778037456 | 17.22° C | 71% | 1016.7 hPa | - | - | - | - |
| 1778036556 | 17.78° C | 71% | 1016.7 hPa | - | - | - | - |
| 1778034755 | 17.78° C | 71% | 1016.8 hPa | - | - | - | - |
| 1778033855 | 17.78° C | 71% | 1016.9 hPa | - | - | - | - |
| 1778032955 | 17.78° C | 71% | 1016.9 hPa | - | - | - | - |
| 1778032089 | 17.78° C | 71% | 1017 hPa | - | - | - | - |
| 1778032054 | 17.78° C | 71% | 1017 hPa | - | - | - | - |
| 1778031154 | 17.78° C | 72% | 1017 hPa | - | - | - | - |
* Rain since midnight (hover to see other rain measurements)
** Current wind speed in m/s (hover to see current wind gust speed)